Time,TemperatureF,DewpointF,PressureIn,WindDirection,WindDirectionDegrees,WindSpeedMPH,WindSpeedGustMPH,Humidity,HourlyPrecipIn,Conditions,Clouds,dailyrainin,SoftwareType,DateUTC
2013-05-05 00:01:00,39.3,37.2,30.30,North,355,0.0,0.0,92,0.00,,,0.00,Wunderground v.1.15,2013-05-05 04:01:00,
2013-05-05 00:03:00,39.2,37.1,30.30,NNE,31,0.0,0.0,92,0.00,,,0.00,Wunderground v.1.15,2013-05-05 04:03:00,
2013-05-05 00:05:00,39.2,37.1,30.30,NNE,31,0.0,0.0,92,0.00,,,0.00,Wunderground v.1.15,2013-05-05 04:05:00,
2013-05-05 00:07:00,39.2,37.1,30.30,NE,44,0.0,0.0,92,0.00,,,0.00,Wunderground v.1.15,2013-05-05 04:07:00,
2013-05-05 00:13:00,39.1,37.0,30.30,North,5,0.0,0.0,92,0.00,,,0.00,Wunderground v.1.15,2013-05-05 04:13:00,
2013-05-05 00:18:00,39.0,36.9,30.30,ENE,62,0.0,0.0,92,0.00,,,0.00,Wunderground v.1.15,2013-05-05 04:18:00,
2013-05-05 00:24:00,38.9,37.0,30.30,NE,35,0.0,2.0,93,0.00,,,0.00,Wunderground v.1.15,2013-05-05 04:24:00,
2013-05-05 00:30:00,38.8,36.9,30.30,NE,35,0.0,0.0,93,0.00,,,0.00,Wunderground v.1.15,2013-05-05 04:30:00,
2013-05-05 00:36:00,38.8,36.9,30.30,ENE,64,0.0,3.0,93,0.00,,,0.00,Wunderground v.1.15,2013-05-05 04:36:00,
2013-05-05 00:41:00,38.8,36.9,30.30,ENE,64,0.0,0.0,93,0.00,,,0.00,Wunderground v.1.15,2013-05-05 04:41:00,
2013-05-05 00:47:00,38.8,37.2,30.30,ENE,57,0.0,0.0,94,0.00,,,0.00,Wunderground v.1.15,2013-05-05 04:47:00,
2013-05-05 00:53:00,38.8,37.2,30.30,NE,39,0.0,2.0,94,0.00,,,0.00,Wunderground v.1.15,2013-05-05 04:53:00,
2013-05-05 00:59:00,38.8,37.2,30.30,ENE,65,0.0,2.0,94,0.00,,,0.00,Wunderground v.1.15,2013-05-05 04:59:00,
2013-05-05 01:04:00,38.8,37.2,30.30,ENE,65,0.0,3.0,94,0.00,,,0.00,Wunderground v.1.15,2013-05-05 05:04:00,
2013-05-05 01:09:00,38.9,37.3,30.30,NNE,31,0.0,3.0,94,0.00,,,0.00,Wunderground v.1.15,2013-05-05 05:09:00,
2013-05-05 01:14:00,38.9,37.3,30.30,North,5,0.0,0.0,94,0.00,,,0.00,Wunderground v.1.15,2013-05-05 05:14:00,
2013-05-05 01:20:00,38.9,37.3,30.29,ESE,106,0.0,0.0,94,0.00,,,0.00,Wunderground v.1.15,2013-05-05 05:20:00,
2013-05-05 01:25:00,38.9,37.6,30.29,NNE,28,0.0,1.0,95,0.00,,,0.00,Wunderground v.1.15,2013-05-05 05:25:00,
2013-05-05 01:31:00,38.9,37.6,30.29,NE,54,0.0,1.0,95,0.00,,,0.00,Wunderground v.1.15,2013-05-05 05:31:00,
2013-05-05 01:36:00,38.9,37.3,30.29,NE,52,0.0,1.0,94,0.00,,,0.00,Wunderground v.1.15,2013-05-05 05:36:00,
2013-05-05 01:41:00,38.9,37.6,30.29,NE,36,0.0,0.0,95,0.00,,,0.00,Wunderground v.1.15,2013-05-05 05:41:00,
2013-05-05 01:47:00,38.9,37.6,30.29,NE,49,0.0,1.0,95,0.00,,,0.00,Wunderground v.1.15,2013-05-05 05:47:00,
2013-05-05 01:52:00,39.0,37.7,30.28,ENE,61,0.0,0.0,95,0.00,,,0.00,Wunderground v.1.15,2013-05-05 05:52:00,
2013-05-05 01:58:00,39.0,37.7,30.28,ENE,67,0.0,1.0,95,0.00,,,0.00,Wunderground v.1.15,2013-05-05 05:58:00,
2013-05-05 02:03:00,39.0,37.7,30.28,NE,55,0.0,0.0,95,0.00,,,0.00,Wunderground v.1.15,2013-05-05 06:03:00,
2013-05-05 02:09:00,39.0,37.7,30.28,NE,55,0.0,1.0,95,0.00,,,0.00,Wunderground v.1.15,2013-05-05 06:09:00,
2013-05-05 02:15:00,38.9,37.6,30.28,NE,53,0.0,0.0,95,0.00,,,0.00,Wunderground v.1.15,2013-05-05 06:15:00,
2013-05-05 02:20:00,38.9,37.6,30.27,ENE,58,0.0,0.0,95,0.00,,,0.00,Wunderground v.1.15,2013-05-05 06:20:00,
2013-05-05 02:26:00,38.9,37.6,30.28,NNE,31,0.0,1.0,95,0.00,,,0.00,Wunderground v.1.15,2013-05-05 06:26:00,
2013-05-05 02:31:00,39.0,38.0,30.28,NE,40,0.0,0.0,96,0.00,,,0.00,Wunderground v.1.15,2013-05-05 06:31:00,
2013-05-05 02:37:00,39.1,37.8,30.28,NNE,31,0.0,0.0,95,0.00,,,0.00,Wunderground v.1.15,2013-05-05 06:37:00,
2013-05-05 02:43:00,39.1,37.8,30.28,NE,35,0.0,0.0,95,0.00,,,0.00,Wunderground v.1.15,2013-05-05 06:43:00,
2013-05-05 02:48:00,39.0,37.7,30.28,NE,35,0.0,0.0,95,0.00,,,0.00,Wunderground v.1.15,2013-05-05 06:48:00,
2013-05-05 02:54:00,39.0,38.0,30.28,ENE,67,0.0,0.0,96,0.00,,,0.00,Wunderground v.1.15,2013-05-05 06:54:00,
2013-05-05 02:59:00,39.0,38.0,30.28,NE,42,0.0,1.0,96,0.00,,,0.00,Wunderground v.1.15,2013-05-05 06:59:00,
2013-05-05 03:04:00,38.9,37.9,30.28,ENE,59,0.0,1.0,96,0.00,,,0.00,Wunderground v.1.15,2013-05-05 07:04:00,
2013-05-05 03:10:00,38.9,37.9,30.27,NE,46,0.0,1.0,96,0.00,,,0.00,Wunderground v.1.15,2013-05-05 07:10:00,
2013-05-05 03:15:00,38.9,37.9,30.27,East,82,0.0,1.0,96,0.00,,,0.00,Wunderground v.1.15,2013-05-05 07:15:00,
2013-05-05 03:21:00,38.9,37.9,30.27,NE,53,0.0,0.0,96,0.00,,,0.00,Wunderground v.1.15,2013-05-05 07:21:00,
2013-05-05 03:26:00,38.9,37.9,30.27,ENE,68,0.0,0.0,96,0.00,,,0.00,Wunderground v.1.15,2013-05-05 07:26:00,
2013-05-05 03:32:00,38.9,37.9,30.27,ENE,68,0.0,1.0,96,0.00,,,0.00,Wunderground v.1.15,2013-05-05 07:32:00,
2013-05-05 03:37:00,38.8,37.8,30.27,ENE,68,0.0,1.0,96,0.00,,,0.00,Wunderground v.1.15,2013-05-05 07:37:00,
2013-05-05 03:43:00,38.7,37.7,30.27,ENE,68,0.0,0.0,96,0.00,,,0.00,Wunderground v.1.15,2013-05-05 07:43:00,
2013-05-05 03:48:00,38.7,37.7,30.27,ENE,68,0.0,0.0,96,0.00,,,0.00,Wunderground v.1.15,2013-05-05 07:48:00,
2013-05-05 03:54:00,38.8,37.8,30.27,NE,53,0.0,0.0,96,0.00,,,0.00,Wunderground v.1.15,2013-05-05 07:54:00,
2013-05-05 03:59:00,38.8,37.8,30.28,NE,40,0.0,2.0,96,0.00,,,0.00,Wunderground v.1.15,2013-05-05 07:59:00,
2013-05-05 04:04:00,38.8,37.8,30.27,North,360,0.0,1.0,96,0.00,,,0.00,Wunderground v.1.15,2013-05-05 08:04:00,
2013-05-05 04:10:00,38.8,37.8,30.27,NNW,338,0.0,0.0,96,0.00,,,0.00,Wunderground v.1.15,2013-05-05 08:10:00,
2013-05-05 04:15:00,39.0,38.0,30.27,NNW,330,0.0,2.0,96,0.00,,,0.00,Wunderground v.1.15,2013-05-05 08:15:00,
2013-05-05 04:21:00,39.1,38.1,30.27,ENE,69,1.0,1.0,96,0.00,,,0.00,Wunderground v.1.15,2013-05-05 08:21:00,
2013-05-05 04:26:00,39.4,38.6,30.27,NE,36,1.0,2.0,97,0.00,,,0.00,Wunderground v.1.15,2013-05-05 08:26:00,
2013-05-05 04:32:00,39.6,38.8,30.27,NE,40,1.0,1.0,97,0.00,,,0.00,Wunderground v.1.15,2013-05-05 08:32:00,
2013-05-05 04:38:00,39.7,38.9,30.27,NE,35,1.0,3.0,97,0.00,,,0.00,Wunderground v.1.15,2013-05-05 08:38:00,
2013-05-05 04:43:00,39.7,38.7,30.27,East,88,1.0,4.0,96,0.00,,,0.00,Wunderground v.1.15,2013-05-05 08:43:00,
2013-05-05 04:48:00,39.7,38.7,30.27,ESE,108,1.0,4.0,96,0.00,,,0.00,Wunderground v.1.15,2013-05-05 08:48:00,
2013-05-05 04:54:00,39.7,38.7,30.27,ENE,57,1.0,2.0,96,0.00,,,0.00,Wunderground v.1.15,2013-05-05 08:54:00,
2013-05-05 04:59:00,39.8,38.8,30.27,North,5,1.0,2.0,96,0.00,,,0.00,Wunderground v.1.15,2013-05-05 08:59:00,
2013-05-05 05:05:00,39.9,39.1,30.27,NE,44,1.0,3.0,97,0.00,,,0.00,Wunderground v.1.15,2013-05-05 09:05:00,
2013-05-05 05:11:00,39.8,38.8,30.27,North,355,1.0,1.0,96,0.00,,,0.00,Wunderground v.1.15,2013-05-05 09:11:00,
2013-05-05 05:16:00,39.8,38.8,30.27,NE,36,1.0,2.0,96,0.00,,,0.00,Wunderground v.1.15,2013-05-05 09:16:00,
2013-05-05 05:22:00,39.9,38.9,30.27,NE,54,1.0,1.0,96,0.00,,,0.00,Wunderground v.1.15,2013-05-05 09:22:00,
2013-05-05 05:27:00,39.8,38.8,30.27,ENE,65,0.0,1.0,96,0.00,,,0.00,Wunderground v.1.15,2013-05-05 09:27:00,
2013-05-05 05:33:00,39.8,38.8,30.27,NE,40,0.0,0.0,96,0.00,,,0.00,Wunderground v.1.15,2013-05-05 09:33:00,
2013-05-05 05:39:00,40.0,39.2,30.27,ENE,60,0.0,3.0,97,0.00,,,0.00,Wunderground v.1.15,2013-05-05 09:39:00,
2013-05-05 05:45:00,40.0,39.2,30.27,NE,38,0.0,3.0,97,0.00,,,0.00,Wunderground v.1.15,2013-05-05 09:45:00,
2013-05-05 05:51:00,40.0,39.2,30.27,NNE,33,0.0,1.0,97,0.00,,,0.00,Wunderground v.1.15,2013-05-05 09:51:00,
2013-05-05 05:56:00,40.1,39.3,30.27,NE,51,1.0,1.0,97,0.00,,,0.00,Wunderground v.1.15,2013-05-05 09:56:00,
2013-05-05 06:02:00,40.1,39.3,30.28,NNE,30,0.0,1.0,97,0.00,,,0.00,Wunderground v.1.15,2013-05-05 10:02:00,
2013-05-05 06:08:00,40.1,39.3,30.27,North,11,0.0,1.0,97,0.00,,,0.00,Wunderground v.1.15,2013-05-05 10:08:00,
2013-05-05 06:13:00,40.3,39.5,30.28,NE,51,1.0,1.0,97,0.00,,,0.00,Wunderground v.1.15,2013-05-05 10:13:00,
2013-05-05 06:19:00,40.4,39.6,30.28,East,81,1.0,1.0,97,0.00,,,0.00,Wunderground v.1.15,2013-05-05 10:19:00,
2013-05-05 06:24:00,40.5,39.7,30.28,East,83,0.0,1.0,97,0.00,,,0.00,Wunderground v.1.15,2013-05-05 10:24:00,
2013-05-05 06:30:00,40.7,39.9,30.28,NE,53,0.0,1.0,97,0.00,,,0.00,Wunderground v.1.15,2013-05-05 10:30:00,
2013-05-05 06:35:00,41.0,40.2,30.28,East,84,1.0,2.0,97,0.00,,,0.00,Wunderground v.1.15,2013-05-05 10:35:00,
2013-05-05 06:40:00,41.3,40.5,30.29,ESE,102,1.0,1.0,97,0.00,,,0.00,Wunderground v.1.15,2013-05-05 10:40:00,
2013-05-05 06:46:00,41.5,40.7,30.29,East,101,0.0,1.0,97,0.00,,,0.00,Wunderground v.1.15,2013-05-05 10:46:00,
2013-05-05 06:51:00,41.9,41.1,30.29,NE,42,0.0,0.0,97,0.00,,,0.00,Wunderground v.1.15,2013-05-05 10:51:00,
2013-05-05 06:57:00,42.2,41.7,30.29,NE,44,1.0,2.0,98,0.00,,,0.00,Wunderground v.1.15,2013-05-05 10:57:00,
2013-05-05 07:02:00,42.5,41.7,30.29,North,5,1.0,1.0,97,0.00,,,0.00,Wunderground v.1.15,2013-05-05 11:02:00,
2013-05-05 07:07:00,42.8,42.3,30.29,NE,53,1.0,1.0,98,0.00,,,0.00,Wunderground v.1.15,2013-05-05 11:07:00,
2013-05-05 07:13:00,43.2,42.4,30.29,ENE,57,1.0,1.0,97,0.00,,,0.00,Wunderground v.1.15,2013-05-05 11:13:00,
2013-05-05 07:18:00,43.5,42.7,30.29,NE,38,1.0,2.0,97,0.00,,,0.00,Wunderground v.1.15,2013-05-05 11:18:00,
2013-05-05 07:24:00,44.1,43.3,30.29,NNE,18,1.0,4.0,97,0.00,,,0.00,Wunderground v.1.15,2013-05-05 11:24:00,
2013-05-05 07:29:00,44.5,43.7,30.29,East,82,1.0,4.0,97,0.00,,,0.00,Wunderground v.1.15,2013-05-05 11:29:00,
2013-05-05 07:34:00,45.0,44.2,30.29,NE,44,1.0,1.0,97,0.00,,,0.00,Wunderground v.1.15,2013-05-05 11:34:00,
2013-05-05 07:39:00,45.6,44.5,30.30,NE,53,1.0,2.0,96,0.00,,,0.00,Wunderground v.1.15,2013-05-05 11:39:00,
2013-05-05 07:45:00,46.0,44.4,30.29,ESE,106,2.0,3.0,94,0.00,,,0.00,Wunderground v.1.15,2013-05-05 11:45:00,
2013-05-05 07:51:00,46.3,44.4,30.30,ENE,63,2.0,6.0,93,0.00,,,0.00,Wunderground v.1.15,2013-05-05 11:51:00,
2013-05-05 07:56:00,46.7,43.9,30.30,East,98,2.0,6.0,90,0.00,,,0.00,Wunderground v.1.15,2013-05-05 11:56:00,
2013-05-05 08:02:00,47.6,44.5,30.30,NE,54,3.0,4.0,89,0.00,,,0.00,Wunderground v.1.15,2013-05-05 12:02:00,
2013-05-05 08:07:00,48.7,45.0,30.30,North,355,2.0,5.0,87,0.00,,,0.00,Wunderground v.1.15,2013-05-05 12:07:00,
2013-05-05 08:13:00,49.8,45.5,30.30,ENE,76,2.0,3.0,85,0.00,,,0.00,Wunderground v.1.15,2013-05-05 12:13:00,
2013-05-05 08:18:00,50.7,45.4,30.30,East,87,2.0,3.0,82,0.00,,,0.00,Wunderground v.1.15,2013-05-05 12:18:00,
2013-05-05 08:24:00,51.5,45.2,30.30,ESE,103,2.0,5.0,79,0.00,,,0.00,Wunderground v.1.15,2013-05-05 12:24:00,
2013-05-05 08:29:00,51.9,44.6,30.30,East,98,2.0,5.0,76,0.00,,,0.00,Wunderground v.1.15,2013-05-05 12:29:00,
2013-05-05 08:34:00,52.0,45.4,30.29,East,85,3.0,3.0,78,0.00,,,0.00,Wunderground v.1.15,2013-05-05 12:34:00,
2013-05-05 08:40:00,52.6,45.6,30.29,SE,128,3.0,3.0,77,0.00,,,0.00,Wunderground v.1.15,2013-05-05 12:40:00,
2013-05-05 08:45:00,53.2,45.5,30.29,ESE,112,2.0,3.0,75,0.00,,,0.00,Wunderground v.1.15,2013-05-05 12:45:00,
2013-05-05 08:51:00,53.9,45.4,30.29,NE,49,2.0,4.0,73,0.00,,,0.00,Wunderground v.1.15,2013-05-05 12:51:00,
2013-05-05 08:56:00,54.0,43.7,30.29,East,88,3.0,7.0,68,0.00,,,0.00,Wunderground v.1.15,2013-05-05 12:56:00,
2013-05-05 09:02:00,53.8,43.9,30.29,SE,130,4.0,7.0,69,0.00,,,0.00,Wunderground v.1.15,2013-05-05 13:02:00,
2013-05-05 09:07:00,53.7,43.8,30.29,NE,35,3.0,7.0,69,0.00,,,0.00,Wunderground v.1.15,2013-05-05 13:07:00,
2013-05-05 09:13:00,53.3,43.8,30.29,North,351,3.0,7.0,70,0.00,,,0.00,Wunderground v.1.15,2013-05-05 13:13:00,
2013-05-05 09:18:00,53.4,43.9,30.29,ENE,59,2.0,8.0,70,0.00,,,0.00,Wunderground v.1.15,2013-05-05 13:18:00,
2013-05-05 09:24:00,53.5,44.0,30.29,NE,36,2.0,3.0,70,0.00,,,0.00,Wunderground v.1.15,2013-05-05 13:24:00,
2013-05-05 09:29:00,53.8,43.9,30.29,ESE,103,2.0,3.0,69,0.00,,,0.00,Wunderground v.1.15,2013-05-05 13:29:00,
2013-05-05 09:35:00,55.0,44.2,30.29,ENE,68,2.0,7.0,67,0.00,,,0.00,Wunderground v.1.15,2013-05-05 13:35:00,
2013-05-05 09:41:00,56.4,44.4,30.28,SSE,166,3.0,3.0,64,0.00,,,0.00,Wunderground v.1.15,2013-05-05 13:41:00,
2013-05-05 09:46:00,57.4,44.9,30.28,NNW,342,2.0,3.0,63,0.00,,,0.00,Wunderground v.1.15,2013-05-05 13:46:00,
2013-05-05 09:52:00,58.0,44.2,30.29,NNE,17,2.0,3.0,60,0.00,,,0.00,Wunderground v.1.15,2013-05-05 13:52:00,
2013-05-05 09:57:00,58.0,43.7,30.29,ESE,103,4.0,10.0,59,0.00,,,0.00,Wunderground v.1.15,2013-05-05 13:57:00,
2013-05-05 10:03:00,58.1,43.4,30.29,East,90,4.0,6.0,58,0.00,,,0.00,Wunderground v.1.15,2013-05-05 14:03:00,
2013-05-05 10:09:00,58.3,43.1,30.29,ENE,71,4.0,6.0,57,0.00,,,0.00,Wunderground v.1.15,2013-05-05 14:09:00,
2013-05-05 10:14:00,58.6,43.9,30.29,East,82,4.0,6.0,58,0.00,,,0.00,Wunderground v.1.15,2013-05-05 14:14:00,
2013-05-05 10:20:00,58.4,43.2,30.29,ENE,71,3.0,4.0,57,0.00,,,0.00,Wunderground v.1.15,2013-05-05 14:20:00,
2013-05-05 10:25:00,58.0,43.3,30.29,NNE,23,3.0,5.0,58,0.00,,,0.00,Wunderground v.1.15,2013-05-05 14:25:00,
2013-05-05 10:31:00,57.4,42.7,30.29,ESE,106,3.0,5.0,58,0.00,,,0.00,Wunderground v.1.15,2013-05-05 14:31:00,
2013-05-05 10:36:00,57.3,43.5,30.29,East,99,3.0,5.0,60,0.00,,,0.00,Wunderground v.1.15,2013-05-05 14:36:00,
2013-05-05 10:41:00,57.4,44.1,30.29,ENE,65,2.0,2.0,61,0.00,,,0.00,Wunderground v.1.15,2013-05-05 14:41:00,
2013-05-05 10:47:00,57.5,43.7,30.29,NE,54,1.0,4.0,60,0.00,,,0.00,Wunderground v.1.15,2013-05-05 14:47:00,
2013-05-05 10:52:00,57.5,43.7,30.29,NW,307,2.0,2.0,60,0.00,,,0.00,Wunderground v.1.15,2013-05-05 14:52:00,
2013-05-05 10:58:00,57.5,43.7,30.29,NE,55,1.0,3.0,60,0.00,,,0.00,Wunderground v.1.15,2013-05-05 14:58:00,
2013-05-05 11:03:00,57.2,43.4,30.29,NW,312,2.0,6.0,60,0.00,,,0.00,Wunderground v.1.15,2013-05-05 15:03:00,
2013-05-05 11:09:00,57.1,43.8,30.29,East,100,3.0,6.0,61,0.00,,,0.00,Wunderground v.1.15,2013-05-05 15:09:00,
2013-05-05 11:15:00,56.9,42.7,30.29,East,80,3.0,4.0,59,0.00,,,0.00,Wunderground v.1.15,2013-05-05 15:15:00,
2013-05-05 11:20:00,56.8,42.6,30.29,SE,138,3.0,3.0,59,0.00,,,0.00,Wunderground v.1.15,2013-05-05 15:20:00,
2013-05-05 11:26:00,56.9,42.3,30.29,East,99,3.0,4.0,58,0.00,,,0.00,Wunderground v.1.15,2013-05-05 15:26:00,
2013-05-05 11:31:00,57.1,42.9,30.29,SSE,165,3.0,3.0,59,0.00,,,0.00,Wunderground v.1.15,2013-05-05 15:31:00,
2013-05-05 11:36:00,57.7,43.0,30.29,South,178,3.0,5.0,58,0.00,,,0.00,Wunderground v.1.15,2013-05-05 15:36:00,
2013-05-05 11:42:00,58.0,42.8,30.28,East,85,3.0,5.0,57,0.00,,,0.00,Wunderground v.1.15,2013-05-05 15:42:00,
2013-05-05 11:47:00,58.3,43.6,30.28,ESE,120,3.0,7.0,58,0.00,,,0.00,Wunderground v.1.15,2013-05-05 15:47:00,
2013-05-05 11:53:00,58.6,42.9,30.28,ESE,123,3.0,8.0,56,0.00,,,0.00,Wunderground v.1.15,2013-05-05 15:53:00,
2013-05-05 11:59:00,58.7,44.0,30.28,SE,128,4.0,8.0,58,0.00,,,0.00,Wunderground v.1.15,2013-05-05 15:59:00,
2013-05-05 12:04:00,59.2,43.0,30.28,SSE,156,4.0,5.0,55,0.00,,,0.00,Wunderground v.1.15,2013-05-05 16:04:00,
2013-05-05 12:10:00,59.4,43.2,30.28,East,88,3.0,3.0,55,0.00,,,0.00,Wunderground v.1.15,2013-05-05 16:10:00,
2013-05-05 12:15:00,59.4,42.7,30.28,ENE,76,3.0,6.0,54,0.00,,,0.00,Wunderground v.1.15,2013-05-05 16:15:00,
2013-05-05 12:20:00,59.6,42.9,30.28,SSE,164,3.0,3.0,54,0.00,,,0.00,Wunderground v.1.15,2013-05-05 16:20:00,
2013-05-05 12:26:00,60.2,43.0,30.28,SSE,151,3.0,8.0,53,0.00,,,0.00,Wunderground v.1.15,2013-05-05 16:26:00,
2013-05-05 12:31:00,60.9,43.1,30.29,East,98,3.0,3.0,52,0.00,,,0.00,Wunderground v.1.15,2013-05-05 16:31:00,
2013-05-05 12:37:00,60.6,43.4,30.28,ENE,67,3.0,4.0,53,0.00,,,0.00,Wunderground v.1.15,2013-05-05 16:37:00,
2013-05-05 12:42:00,61.1,43.3,30.28,SE,133,3.0,4.0,52,0.00,,,0.00,Wunderground v.1.15,2013-05-05 16:42:00,
2013-05-05 12:47:00,61.4,43.6,30.28,East,84,3.0,6.0,52,0.00,,,0.00,Wunderground v.1.15,2013-05-05 16:47:00,
2013-05-05 12:53:00,61.1,42.3,30.28,East,97,4.0,5.0,50,0.00,,,0.00,Wunderground v.1.15,2013-05-05 16:53:00,
2013-05-05 12:59:00,60.6,43.4,30.28,ESE,116,3.0,5.0,53,0.00,,,0.00,Wunderground v.1.15,2013-05-05 16:59:00,
2013-05-05 13:04:00,60.8,43.6,30.28,East,82,4.0,7.0,53,0.00,,,0.00,Wunderground v.1.15,2013-05-05 17:04:00,
2013-05-05 13:09:00,60.8,42.5,30.28,East,82,4.0,7.0,51,0.00,,,0.00,Wunderground v.1.15,2013-05-05 17:09:00,
2013-05-05 13:14:00,61.3,43.5,30.28,ENE,70,3.0,10.0,52,0.00,,,0.00,Wunderground v.1.15,2013-05-05 17:14:00,
2013-05-05 13:20:00,62.0,44.2,30.28,South,175,3.0,4.0,52,0.00,,,0.00,Wunderground v.1.15,2013-05-05 17:20:00,
2013-05-05 13:25:00,62.3,43.4,30.28,East,82,3.0,14.0,50,0.00,,,0.00,Wunderground v.1.15,2013-05-05 17:25:00,
2013-05-05 13:31:00,62.4,43.5,30.28,NNW,340,3.0,3.0,50,0.00,,,0.00,Wunderground v.1.15,2013-05-05 17:31:00,
2013-05-05 13:37:00,62.6,42.6,30.28,South,169,3.0,6.0,48,0.00,,,0.00,Wunderground v.1.15,2013-05-05 17:37:00,
2013-05-05 13:42:00,62.3,43.4,30.28,NE,46,3.0,4.0,50,0.00,,,0.00,Wunderground v.1.15,2013-05-05 17:42:00,
2013-05-05 13:48:00,63.2,43.7,30.27,NNE,14,2.0,4.0,49,0.00,,,0.00,Wunderground v.1.15,2013-05-05 17:48:00,
2013-05-05 13:53:00,63.9,43.3,30.27,East,81,2.0,5.0,47,0.00,,,0.00,Wunderground v.1.15,2013-05-05 17:53:00,
2013-05-05 13:59:00,64.1,44.5,30.28,ESE,117,3.0,5.0,49,0.00,,,0.00,Wunderground v.1.15,2013-05-05 17:59:00,
2013-05-05 14:04:00,64.1,43.4,30.28,ESE,116,2.0,7.0,47,0.00,,,0.00,Wunderground v.1.15,2013-05-05 18:04:00,
2013-05-05 14:09:00,63.9,43.8,30.28,East,95,2.0,7.0,48,0.00,,,0.00,Wunderground v.1.15,2013-05-05 18:09:00,
2013-05-05 14:15:00,63.3,44.9,30.27,WNW,302,3.0,10.0,51,0.00,,,0.00,Wunderground v.1.15,2013-05-05 18:15:00,
2013-05-05 14:21:00,62.7,44.3,30.28,West,267,2.0,2.0,51,0.00,,,0.00,Wunderground v.1.15,2013-05-05 18:21:00,
2013-05-05 14:27:00,62.9,44.5,30.27,NNE,24,2.0,13.0,51,0.00,,,0.00,Wunderground v.1.15,2013-05-05 18:27:00,
2013-05-05 14:32:00,62.0,44.2,30.27,North,360,3.0,6.0,52,0.00,,,0.00,Wunderground v.1.15,2013-05-05 18:32:00,
2013-05-05 14:37:00,61.7,44.9,30.27,ESE,104,2.0,8.0,54,0.00,,,0.00,Wunderground v.1.15,2013-05-05 18:37:00,
2013-05-05 14:43:00,62.3,44.4,30.27,NW,316,2.0,3.0,52,0.00,,,0.00,Wunderground v.1.15,2013-05-05 18:43:00,
2013-05-05 14:48:00,62.6,44.2,30.27,NW,323,2.0,5.0,51,0.00,,,0.00,Wunderground v.1.15,2013-05-05 18:48:00,
2013-05-05 14:54:00,62.3,43.9,30.27,ENE,57,3.0,7.0,51,0.00,,,0.00,Wunderground v.1.15,2013-05-05 18:54:00,
2013-05-05 14:59:00,61.4,43.6,30.26,SE,136,4.0,7.0,52,0.00,,,0.00,Wunderground v.1.15,2013-05-05 18:59:00,
2013-05-05 15:04:00,61.3,44.0,30.26,ENE,61,3.0,7.0,53,0.00,,,0.00,Wunderground v.1.15,2013-05-05 19:04:00,
2013-05-05 15:10:00,61.6,43.8,30.26,East,94,3.0,3.0,52,0.00,,,0.00,Wunderground v.1.15,2013-05-05 19:10:00,
2013-05-05 15:15:00,61.5,43.7,30.26,NW,307,2.0,3.0,52,0.00,,,0.00,Wunderground v.1.15,2013-05-05 19:15:00,
2013-05-05 15:21:00,61.8,44.5,30.26,WNW,295,3.0,3.0,53,0.00,,,0.00,Wunderground v.1.15,2013-05-05 19:21:00,
2013-05-05 15:26:00,62.1,43.7,30.26,NNW,344,3.0,5.0,51,0.00,,,0.00,Wunderground v.1.15,2013-05-05 19:26:00,
2013-05-05 15:32:00,61.3,43.5,30.26,ESE,112,2.0,2.0,52,0.00,,,0.00,Wunderground v.1.15,2013-05-05 19:32:00,
2013-05-05 15:37:00,60.9,43.6,30.27,ESE,109,3.0,5.0,53,0.00,,,0.00,Wunderground v.1.15,2013-05-05 19:37:00,
2013-05-05 15:42:00,60.6,43.9,30.26,North,5,3.0,6.0,54,0.00,,,0.00,Wunderground v.1.15,2013-05-05 19:42:00,
2013-05-05 15:48:00,60.9,43.6,30.26,ESE,110,3.0,6.0,53,0.00,,,0.00,Wunderground v.1.15,2013-05-05 19:48:00,
2013-05-05 15:53:00,60.4,43.7,30.26,ENE,70,3.0,3.0,54,0.00,,,0.00,Wunderground v.1.15,2013-05-05 19:53:00,
2013-05-05 15:59:00,60.3,44.1,30.26,East,94,2.0,5.0,55,0.00,,,0.00,Wunderground v.1.15,2013-05-05 19:59:00,
2013-05-05 16:04:00,60.9,44.1,30.26,East,79,2.0,2.0,54,0.00,,,0.00,Wunderground v.1.15,2013-05-05 20:04:00,
2013-05-05 16:09:00,61.3,44.0,30.26,ENE,57,2.0,4.0,53,0.00,,,0.00,Wunderground v.1.15,2013-05-05 20:09:00,
2013-05-05 16:15:00,60.9,43.1,30.26,ESE,123,3.0,7.0,52,0.00,,,0.00,Wunderground v.1.15,2013-05-05 20:15:00,
2013-05-05 16:20:00,60.9,44.1,30.25,ENE,74,2.0,2.0,54,0.00,,,0.00,Wunderground v.1.15,2013-05-05 20:20:00,
2013-05-05 16:26:00,61.4,44.1,30.25,East,80,2.0,10.0,53,0.00,,,0.00,Wunderground v.1.15,2013-05-05 20:26:00,
2013-05-05 16:31:00,61.4,43.6,30.25,NE,51,3.0,3.0,52,0.00,,,0.00,Wunderground v.1.15,2013-05-05 20:31:00,
2013-05-05 16:36:00,61.4,44.1,30.25,NW,317,3.0,6.0,53,0.00,,,0.00,Wunderground v.1.15,2013-05-05 20:36:00,
2013-05-05 16:42:00,61.6,44.8,30.25,NE,48,3.0,5.0,54,0.00,,,0.00,Wunderground v.1.15,2013-05-05 20:42:00,
2013-05-05 16:47:00,61.1,45.7,30.25,East,98,2.0,5.0,57,0.00,,,0.00,Wunderground v.1.15,2013-05-05 20:47:00,
2013-05-05 16:53:00,60.2,45.8,30.25,East,83,3.0,5.0,59,0.00,,,0.00,Wunderground v.1.15,2013-05-05 20:53:00,
2013-05-05 16:58:00,59.6,45.7,30.25,East,86,4.0,6.0,60,0.00,,,0.00,Wunderground v.1.15,2013-05-05 20:58:00,
2013-05-05 17:03:00,59.3,45.8,30.25,NE,52,3.0,7.0,61,0.00,,,0.00,Wunderground v.1.15,2013-05-05 21:03:00,
2013-05-05 17:09:00,58.9,45.9,30.25,East,94,3.0,7.0,62,0.00,,,0.00,Wunderground v.1.15,2013-05-05 21:09:00,
2013-05-05 17:15:00,58.3,45.8,30.25,ESE,102,3.0,4.0,63,0.00,,,0.00,Wunderground v.1.15,2013-05-05 21:15:00,
2013-05-05 17:20:00,57.8,45.7,30.25,SE,140,4.0,4.0,64,0.00,,,0.00,Wunderground v.1.15,2013-05-05 21:20:00,
2013-05-05 17:26:00,57.4,46.1,30.25,ENE,75,2.0,4.0,66,0.00,,,0.00,Wunderground v.1.15,2013-05-05 21:26:00,
2013-05-05 17:31:00,56.9,45.7,30.25,SSE,165,2.0,3.0,66,0.00,,,0.00,Wunderground v.1.15,2013-05-05 21:31:00,
2013-05-05 17:36:00,56.2,45.8,30.25,East,84,3.0,5.0,68,0.00,,,0.00,Wunderground v.1.15,2013-05-05 21:36:00,
2013-05-05 17:42:00,55.7,46.1,30.25,ENE,67,2.0,4.0,70,0.00,,,0.00,Wunderground v.1.15,2013-05-05 21:42:00,
2013-05-05 17:47:00,55.6,45.6,30.26,ENE,66,3.0,8.0,69,0.00,,,0.00,Wunderground v.1.15,2013-05-05 21:47:00,
2013-05-05 17:53:00,55.3,46.1,30.26,ESE,108,4.0,4.0,71,0.00,,,0.00,Wunderground v.1.15,2013-05-05 21:53:00,
2013-05-05 17:58:00,55.3,46.1,30.26,SE,130,2.0,4.0,71,0.00,,,0.00,Wunderground v.1.15,2013-05-05 21:58:00,
2013-05-05 18:03:00,55.3,46.1,30.26,South,173,2.0,3.0,71,0.00,,,0.00,Wunderground v.1.15,2013-05-05 22:03:00,
2013-05-05 18:09:00,55.3,46.1,30.26,ESE,109,2.0,5.0,71,0.00,,,0.00,Wunderground v.1.15,2013-05-05 22:09:00,
2013-05-05 18:15:00,55.0,45.8,30.26,East,95,3.0,7.0,71,0.00,,,0.00,Wunderground v.1.15,2013-05-05 22:15:00,
2013-05-05 18:20:00,54.4,45.6,30.26,ENE,60,4.0,4.0,72,0.00,,,0.00,Wunderground v.1.15,2013-05-05 22:20:00,
2013-05-05 18:25:00,54.0,45.9,30.25,ENE,65,3.0,5.0,74,0.00,,,0.00,Wunderground v.1.15,2013-05-05 22:25:00,
2013-05-05 18:30:00,53.4,45.3,30.25,SSE,148,3.0,3.0,74,0.00,,,0.00,Wunderground v.1.15,2013-05-05 22:30:00,
2013-05-05 18:36:00,52.7,45.3,30.26,East,90,3.0,8.0,76,0.00,,,0.00,Wunderground v.1.15,2013-05-05 22:36:00,
2013-05-05 18:42:00,51.8,45.2,30.26,ENE,68,4.0,9.0,78,0.00,,,0.00,Wunderground v.1.15,2013-05-05 22:42:00,
2013-05-05 18:47:00,51.3,45.0,30.26,ENE,78,4.0,9.0,79,0.00,,,0.00,Wunderground v.1.15,2013-05-05 22:47:00,
2013-05-05 18:53:00,50.9,44.9,30.26,ESE,110,3.0,5.0,80,0.00,,,0.00,Wunderground v.1.15,2013-05-05 22:53:00,
2013-05-05 18:58:00,50.6,44.7,30.26,East,82,3.0,5.0,80,0.00,,,0.00,Wunderground v.1.15,2013-05-05 22:58:00,
2013-05-05 19:03:00,50.2,44.6,30.26,East,82,2.0,5.0,81,0.00,,,0.00,Wunderground v.1.15,2013-05-05 23:03:00,
2013-05-05 19:09:00,49.8,44.2,30.26,East,92,2.0,5.0,81,0.00,,,0.00,Wunderground v.1.15,2013-05-05 23:09:00,
2013-05-05 19:14:00,49.5,44.2,30.26,ENE,78,2.0,4.0,82,0.00,,,0.00,Wunderground v.1.15,2013-05-05 23:14:00,
2013-05-05 19:20:00,49.1,43.8,30.26,East,79,2.0,3.0,82,0.00,,,0.00,Wunderground v.1.15,2013-05-05 23:20:00,
2013-05-05 19:25:00,48.8,43.9,30.27,ESE,108,2.0,5.0,83,0.00,,,0.00,Wunderground v.1.15,2013-05-05 23:25:00,
2013-05-05 19:31:00,48.4,43.8,30.27,East,94,2.0,2.0,84,0.00,,,0.00,Wunderground v.1.15,2013-05-05 23:31:00,
2013-05-05 19:36:00,48.2,43.9,30.27,SE,145,2.0,5.0,85,0.00,,,0.00,Wunderground v.1.15,2013-05-05 23:36:00,
2013-05-05 19:41:00,48.0,43.7,30.27,ENE,78,2.0,3.0,85,0.00,,,0.00,Wunderground v.1.15,2013-05-05 23:41:00,
2013-05-05 19:47:00,47.9,43.6,30.27,NE,44,2.0,7.0,85,0.00,,,0.00,Wunderground v.1.15,2013-05-05 23:47:00,
2013-05-05 19:52:00,47.7,43.4,30.27,NNE,19,2.0,3.0,85,0.00,,,0.00,Wunderground v.1.15,2013-05-05 23:52:00,
2013-05-05 19:57:00,47.5,43.5,30.27,East,86,2.0,3.0,86,0.00,,,0.00,Wunderground v.1.15,2013-05-05 23:57:00,
2013-05-05 20:03:00,47.4,43.4,30.27,East,83,1.0,3.0,86,0.00,,,0.00,Wunderground v.1.15,2013-05-06 00:03:00,
2013-05-05 20:09:00,47.4,43.4,30.27,ESE,104,1.0,3.0,86,0.00,,,0.00,Wunderground v.1.15,2013-05-06 00:09:00,
2013-05-05 20:15:00,47.3,43.6,30.27,ENE,77,1.0,5.0,87,0.00,,,0.00,Wunderground v.1.15,2013-05-06 00:15:00,
2013-05-05 20:20:00,47.3,43.6,30.27,East,91,1.0,1.0,87,0.00,,,0.00,Wunderground v.1.15,2013-05-06 00:20:00,
2013-05-05 20:26:00,47.2,43.5,30.27,ENE,71,1.0,5.0,87,0.00,,,0.00,Wunderground v.1.15,2013-05-06 00:26:00,
2013-05-05 20:31:00,47.2,43.5,30.27,East,97,1.0,5.0,87,0.00,,,0.00,Wunderground v.1.15,2013-05-06 00:31:00,
2013-05-05 20:36:00,47.0,43.3,30.27,ESE,112,1.0,5.0,87,0.00,,,0.00,Wunderground v.1.15,2013-05-06 00:36:00,
2013-05-05 20:42:00,46.9,43.2,30.28,ESE,103,0.0,1.0,87,0.00,,,0.00,Wunderground v.1.15,2013-05-06 00:42:00,
2013-05-05 20:47:00,46.8,43.1,30.28,ENE,77,0.0,1.0,87,0.00,,,0.00,Wunderground v.1.15,2013-05-06 00:47:00,
2013-05-05 20:52:00,46.8,43.1,30.28,East,92,1.0,2.0,87,0.00,,,0.00,Wunderground v.1.15,2013-05-06 00:52:00,
2013-05-05 20:58:00,46.7,43.0,30.28,ESE,109,1.0,2.0,87,0.00,,,0.00,Wunderground v.1.15,2013-05-06 00:58:00,
2013-05-05 21:03:00,46.7,43.3,30.28,East,88,1.0,2.0,88,0.00,,,0.00,Wunderground v.1.15,2013-05-06 01:03:00,
2013-05-05 21:09:00,46.6,43.2,30.28,ENE,67,1.0,5.0,88,0.00,,,0.00,Wunderground v.1.15,2013-05-06 01:09:00,
2013-05-05 21:14:00,46.6,43.2,30.28,ESE,109,1.0,1.0,88,0.00,,,0.00,Wunderground v.1.15,2013-05-06 01:14:00,
2013-05-05 21:19:00,46.6,43.2,30.28,ENE,64,0.0,1.0,88,0.00,,,0.00,Wunderground v.1.15,2013-05-06 01:19:00,
2013-05-05 21:24:00,46.5,43.1,30.28,East,82,0.0,1.0,88,0.00,,,0.00,Wunderground v.1.15,2013-05-06 01:24:00,
2013-05-05 21:30:00,46.4,43.0,30.28,East,82,0.0,0.0,88,0.00,,,0.00,Wunderground v.1.15,2013-05-06 01:30:00,
2013-05-05 21:35:00,46.3,42.9,30.28,East,79,0.0,0.0,88,0.00,,,0.00,Wunderground v.1.15,2013-05-06 01:35:00,
2013-05-05 21:41:00,46.1,42.7,30.28,East,98,1.0,1.0,88,0.00,,,0.00,Wunderground v.1.15,2013-05-06 01:41:00,
2013-05-05 21:46:00,46.1,43.0,30.28,SE,130,1.0,1.0,89,0.00,,,0.00,Wunderground v.1.15,2013-05-06 01:46:00,
2013-05-05 21:51:00,46.1,43.0,30.29,ESE,112,0.0,2.0,89,0.00,,,0.00,Wunderground v.1.15,2013-05-06 01:51:00,
2013-05-05 21:57:00,46.1,43.0,30.29,SE,124,1.0,2.0,89,0.00,,,0.00,Wunderground v.1.15,2013-05-06 01:57:00,
2013-05-05 22:03:00,46.1,43.0,30.28,ESE,112,1.0,2.0,89,0.00,,,0.00,Wunderground v.1.15,2013-05-06 02:03:00,
2013-05-05 22:09:00,46.1,43.0,30.28,ENE,68,2.0,3.0,89,0.00,,,0.00,Wunderground v.1.15,2013-05-06 02:09:00,
2013-05-05 22:14:00,46.1,43.0,30.28,ENE,78,1.0,3.0,89,0.00,,,0.00,Wunderground v.1.15,2013-05-06 02:14:00,
2013-05-05 22:20:00,46.0,42.9,30.28,East,80,1.0,2.0,89,0.00,,,0.00,Wunderground v.1.15,2013-05-06 02:20:00,
2013-05-05 22:25:00,46.0,43.2,30.28,ENE,68,1.0,2.0,90,0.00,,,0.00,Wunderground v.1.15,2013-05-06 02:25:00,
2013-05-05 22:31:00,46.0,43.2,30.28,ENE,60,1.0,1.0,90,0.00,,,0.00,Wunderground v.1.15,2013-05-06 02:31:00,
2013-05-05 22:36:00,46.0,43.2,30.28,ESE,109,1.0,1.0,90,0.00,,,0.00,Wunderground v.1.15,2013-05-06 02:36:00,
2013-05-05 22:41:00,46.0,43.2,30.28,East,96,1.0,1.0,90,0.00,,,0.00,Wunderground v.1.15,2013-05-06 02:41:00,
2013-05-05 22:47:00,46.0,43.2,30.28,ENE,67,1.0,1.0,90,0.00,,,0.00,Wunderground v.1.15,2013-05-06 02:47:00,
2013-05-05 22:52:00,46.0,43.2,30.28,SE,136,0.0,4.0,90,0.00,,,0.00,Wunderground v.1.15,2013-05-06 02:52:00,
2013-05-05 22:58:00,46.0,43.2,30.27,ENE,65,0.0,4.0,90,0.00,,,0.00,Wunderground v.1.15,2013-05-06 02:58:00,
2013-05-05 23:03:00,46.0,43.2,30.27,ENE,78,1.0,2.0,90,0.00,,,0.00,Wunderground v.1.15,2013-05-06 03:03:00,
2013-05-05 23:09:00,45.9,43.1,30.27,ESE,102,1.0,3.0,90,0.00,,,0.00,Wunderground v.1.15,2013-05-06 03:09:00,
2013-05-05 23:15:00,45.9,43.1,30.27,SE,128,0.0,2.0,90,0.00,,,0.00,Wunderground v.1.15,2013-05-06 03:15:00,
2013-05-05 23:20:00,45.9,43.1,30.27,ESE,105,0.0,2.0,90,0.00,,,0.00,Wunderground v.1.15,2013-05-06 03:20:00,
2013-05-05 23:25:00,45.8,43.3,30.28,ESE,105,0.0,2.0,91,0.00,,,0.00,Wunderground v.1.15,2013-05-06 03:25:00,
2013-05-05 23:31:00,45.8,43.3,30.27,ESE,105,0.0,0.0,91,0.00,,,0.00,Wunderground v.1.15,2013-05-06 03:31:00,
2013-05-05 23:36:00,45.8,43.0,30.27,ESE,105,0.0,0.0,90,0.00,,,0.00,Wunderground v.1.15,2013-05-06 03:36:00,
2013-05-05 23:42:00,45.8,43.3,30.27,ESE,118,0.0,1.0,91,0.00,,,0.00,Wunderground v.1.15,2013-05-06 03:42:00,
2013-05-05 23:47:00,45.8,43.3,30.27,ESE,118,0.0,1.0,91,0.00,,,0.00,Wunderground v.1.15,2013-05-06 03:47:00,
2013-05-05 23:52:00,45.7,43.2,30.27,ESE,118,0.0,0.0,91,0.00,,,0.00,Wunderground v.1.15,2013-05-06 03:52:00,
2013-05-05 23:58:00,45.7,43.2,30.27,ESE,118,0.0,0.0,91,0.00,,,0.00,Wunderground v.1.15,2013-05-06 03:58:00,